Location: Poughquag
(41.6090°N, 73.6820°W)
Time: 19:22:38
(UTC-04:00)

CAS-4A - Visible Passes

Search period start: 23 June 2024 00:00
Search period end: 03 July 2024 00:00
Orbit: 473 x 487 km, 43.0° (Epoch: 23 June)

Date Brightness Start Highest point End Pass type
(mag) Time Alt. Az. Time Alt. Az. Time Alt. Az.
23 Jun ? 02:34:36 65° WNW 02:35:07 85° N 02:38:53 10° E visible
23 Jun ? 04:10:25 10° W 04:13:48 33° SSW 04:17:13 10° SE visible
23 Jun ? 21:09:18 10° SSE 21:10:21 11° SE 21:11:26 10° SE visible
23 Jun ? 22:45:03 10° SW 22:47:12 30° SSW 22:47:12 30° SSW visible
24 Jun ? 02:08:55 20° E 02:08:55 20° E 02:10:12 10° E visible
24 Jun ? 03:43:15 21° W 03:45:09 34° SSW 03:48:34 10° SE visible
24 Jun ? 22:16:23 10° SW 22:19:56 46° SSE 22:22:17 19° E visible
24 Jun ? 23:55:01 10° W 23:56:35 23° W 23:56:35 23° W visible
25 Jun ? 03:19:03 15° SSE 03:19:03 15° SSE 03:19:53 10° SE visible
25 Jun ? 21:47:40 10° SW 21:51:13 44° SSE 21:54:47 10° E visible
25 Jun ? 23:26:17 10° W 23:30:00 75° N 23:30:14 71° NNE visible
26 Jun ? 21:18:57 10° SW 21:22:29 42° SSE 21:26:01 10° E visible
26 Jun ? 22:57:33 10° W 23:01:15 76° N 23:03:08 27° ENE visible
27 Jun ? 00:36:32 10° WNW 00:37:18 16° WNW 00:37:18 16° WNW visible
27 Jun ? 22:28:46 10° W 22:32:29 77° N 22:35:39 14° ENE visible
28 Jun ? 00:07:44 10° WNW 00:09:48 31° WNW 00:09:48 31° WNW visible
28 Jun ? 21:59:57 10° W 22:03:40 78° N 22:07:24 10° ENE visible
28 Jun ? 23:38:57 10° WNW 23:42:08 61° WNW 23:42:08 61° WNW visible
29 Jun ? 21:31:07 10° W 21:34:51 79° N 21:38:34 10° ENE visible
29 Jun ? 23:10:07 10° WNW 23:13:50 77° N 23:14:20 62° ENE visible
30 Jun ? 21:02:15 10° W 21:05:59 80° N 21:09:43 10° ENE visible
30 Jun ? 22:41:15 10° WNW 22:44:59 76° N 22:46:29 34° E visible
01 Jul ? 00:20:12 10° W 00:20:38 13° W 00:20:38 13° W visible
01 Jul ? 22:12:23 10° WNW 22:16:06 75° N 22:18:35 20° E visible
01 Jul ? 23:51:19 10° W 23:52:44 21° W 23:52:44 21° W visible
02 Jul ? 21:43:27 10° W 21:47:11 74° N 21:50:41 11° E visible
02 Jul ? 23:22:23 10° W 23:24:49 33° WSW 23:24:49 33° WSW visible
